| time (UTC) | temp F | wind direction | speed MPH | gust MPH | rain 1hr in | rain 24hr in | rain mn in | humidity % | barometer mb |
| 20260507104801 | 63 | 78 | 4.0 | 8.0 | 0.00 | 0.00 | 0.00 | 36 | 1006.3 |
| 20260507103401 | 64 | 70 | 3.0 | 8.0 | 0.00 | 0.00 | 0.00 | 39 | 1006.5 |
| 20260507102701 | 65 | 77 | 3.0 | 12.0 | 0.00 | 0.00 | 0.00 | 35 | 1006.6 |
| 20260507102001 | 65 | 79 | 7.0 | 9.0 | 0.00 | 0.00 | 0.00 | 38 | 1006.6 |
| 20260507101301 | 65 | 54 | 3.0 | 9.0 | 0.00 | 0.00 | 0.00 | 41 | 1006.5 |
| 20260507100602 | 64 | 80 | 1.0 | 11.0 | 0.00 | 0.00 | 0.00 | 43 | 1006.6 |
| 20260507095201 | 62 | 48 | 4.0 | 11.0 | 0.00 | 0.00 | 0.00 | 46 | 1006.6 |
| 20260507093101 | 62 | 64 | 4.0 | 9.0 | 0.00 | 0.00 | 0.00 | 46 | 1007.1 |
| 20260507091702 | 60 | 86 | 5.0 | 10.0 | 0.00 | 0.00 | 0.00 | 49 | 1007.2 |
| 20260507091001 | 60 | 90 | 5.0 | 11.0 | 0.00 | 0.00 | 0.00 | 50 | 1007.4 |
| 20260507090302 | 60 | 90 | 4.0 | 11.0 | 0.00 | 0.00 | 0.00 | 51 | 1007.3 |
| 20260507085601 | 59 | 108 | 6.0 | 9.0 | 0.00 | 0.00 | 0.00 | 53 | 1007.3 |
| 20260507084901 | 58 | 104 | 4.0 | 9.0 | 0.00 | 0.00 | 0.00 | 57 | 1007.2 |
| 20260507084201 | 57 | 113 | 3.0 | 8.0 | 0.00 | 0.00 | 0.00 | 60 | 1007.2 |
| 20260507083501 | 56 | 117 | 3.0 | 7.0 | 0.00 | 0.00 | 0.00 | 64 | 1007.4 |
| 20260507082801 | 55 | 89 | 3.0 | 5.0 | 0.00 | 0.00 | 0.00 | 66 | 1007.3 |
| 20260507082101 | 54 | 101 | 2.0 | 5.0 | 0.00 | 0.00 | 0.00 | 66 | 1007.3 |
| 20260507080701 | 54 | 94 | 3.0 | 7.0 | 0.00 | 0.00 | 0.00 | 67 | 1007.5 |
| 20260507080001 | 54 | 111 | 2.0 | 7.0 | 0.00 | 0.00 | 0.00 | 68 | 1007.5 |
| 20260507074601 | 53 | 99 | 3.0 | 8.0 | 0.00 | 0.00 | 0.00 | 70 | 1007.6 |
| 20260507073901 | 52 | 88 | 3.0 | 8.0 | 0.00 | 0.00 | 0.00 | 71 | 1007.6 |
| 20260507073201 | 52 | 92 | 2.0 | 8.0 | 0.00 | 0.00 | 0.00 | 71 | 1007.6 |
| 20260507071801 | 52 | 79 | 2.0 | 7.0 | 0.00 | 0.00 | 0.00 | 70 | 1007.7 |
| 20260507071101 | 52 | 99 | 4.0 | 7.0 | 0.00 | 0.00 | 0.00 | 72 | 1007.7 |
| 20260507070401 | 52 | 87 | 2.0 | 6.0 | 0.00 | 0.00 | 0.00 | 72 | 1007.6 |
| 20260507065001 | 52 | 83 | 4.0 | 8.0 | 0.00 | 0.00 | 0.00 | 73 | 1007.7 |
| 20260507064302 | 51 | 92 | 3.0 | 6.0 | 0.00 | 0.00 | 0.00 | 75 | 1007.7 |
| 20260507063602 | 51 | 97 | 3.0 | 8.0 | 0.00 | 0.00 | 0.00 | 76 | 1007.6 |
| 20260507062902 | 51 | 90 | 2.0 | 8.0 | 0.00 | 0.00 | 0.00 | 78 | 1007.7 |
| 20260507062202 | 50 | 90 | 4.0 | 6.0 | 0.00 | 0.00 | 0.00 | 80 | 1007.7 |
| 20260507061502 | 49 | 87 | 3.0 | 5.0 | 0.00 | 0.00 | 0.00 | 81 | 1007.7 |
| 20260507060801 | 48 | 90 | 2.0 | 4.0 | 0.00 | 0.00 | 0.00 | 81 | 1007.6 |
| 20260507060101 | 48 | 113 | 0.0 | 3.0 | 0.00 | 0.00 | 0.00 | 80 | 1007.8 |
| 20260507054701 | 48 | 97 | 1.0 | 4.0 | 0.00 | 0.00 | 0.00 | 80 | 1007.7 |
| 20260507054001 | 48 | 90 | 2.0 | 4.0 | 0.00 | 0.00 | 0.00 | 79 | 1007.7 |
| 20260507053301 | 49 | 87 | 2.0 | 4.0 | 0.00 | 0.00 | 0.00 | 79 | 1007.6 |
| 20260507051201 | 49 | 59 | 1.0 | 4.0 | 0.00 | 0.00 | 0.00 | 79 | 1007.6 |
| 20260507050500 | 49 | 76 | 2.0 | 5.0 | 0.00 | 0.00 | 0.00 | 80 | 1007.7 |
| 20260507045800 | 49 | 63 | 2.0 | 5.0 | 0.00 | 0.00 | 0.00 | 80 | 1007.8 |
| 20260507045100 | 49 | 75 | 1.0 | 4.0 | 0.00 | 0.00 | 0.00 | 80 | 1007.7 |
| 20260507044400 | 49 | 75 | 1.0 | 7.0 | 0.00 | 0.00 | 0.00 | 81 | 1007.6 |
| 20260507043700 | 49 | 48 | 1.0 | 7.0 | 0.00 | 0.00 | 0.00 | 81 | 1007.8 |
| 20260507042300 | 49 | 39 | 1.0 | 4.0 | 0.00 | 0.00 | 0.00 | 81 | 1007.8 |
| 20260507041601 | 49 | 66 | 2.0 | 4.0 | 0.00 | 0.00 | 0.00 | 82 | 1007.9 |
| 20260507040901 | 49 | 89 | 0.0 | 3.0 | 0.00 | 0.00 | 0.00 | 82 | 1008.0 |
| 20260507035502 | 48 | 37 | 1.0 | 3.0 | 0.00 | 0.00 | 0.00 | 82 | 1007.9 |
| 20260507034800 | 48 | 66 | 0.0 | 2.0 | 0.00 | 0.00 | 0.00 | 81 | 1008.0 |
| 20260507034100 | 48 | 54 | 1.0 | 3.0 | 0.00 | 0.00 | 0.00 | 82 | 1007.9 |
| 20260507032000 | 49 | 52 | 1.0 | 4.0 | 0.00 | 0.00 | 0.00 | 82 | 1007.9 |
| 20260507031301 | 49 | 67 | 2.0 | 4.0 | 0.00 | 0.00 | 0.00 | 82 | 1008.0 |
| 20260507030601 | 49 | 71 | 2.0 | 6.0 | 0.00 | 0.00 | 0.00 | 82 | 1008.0 |
| 20260507025900 | 49 | 36 | 2.0 | 10.0 | 0.00 | 0.00 | 0.00 | 82 | 1007.9 |
| 20260507025200 | 49 | 36 | 2.0 | 10.0 | 0.00 | 0.00 | 0.00 | 83 | 1007.9 |
| 20260507024500 | 48 | 79 | 2.0 | 4.0 | 0.00 | 0.00 | 0.00 | 85 | 1008.0 |
| 20260507023801 | 48 | 90 | 2.0 | 4.0 | 0.00 | 0.00 | 0.00 | 86 | 1008.0 |
| 20260507022400 | 47 | 97 | 1.0 | 3.0 | 0.00 | 0.00 | 0.00 | 87 | 1008.2 |
| 20260507021700 | 47 | 71 | 1.0 | 3.0 | 0.00 | 0.00 | 0.00 | 87 | 1008.1 |
| 20260507021000 | 47 | 63 | 2.0 | 5.0 | 0.00 | 0.00 | 0.00 | 87 | 1008.0 |
| 20260507020300 | 47 | 62 | 1.0 | 4.0 | 0.00 | 0.00 | 0.00 | 88 | 1008.1 |
| 20260507014900 | 46 | 79 | 2.0 | 5.0 | 0.00 | 0.00 | 0.00 | 89 | 1008.1 |
| 20260507014200 | 46 | 65 | 2.0 | 5.0 | 0.00 | 0.00 | 0.00 | 89 | 1008.0 |
| 20260507013500 | 46 | 79 | 2.0 | 5.0 | 0.00 | 0.00 | 0.00 | 90 | 1008.1 |
| 20260507012801 | 46 | 78 | 2.0 | 4.0 | 0.00 | 0.00 | 0.00 | 89 | 1008.1 |
| 20260507012100 | 46 | 80 | 1.0 | 4.0 | 0.00 | 0.00 | 0.00 | 89 | 1008.4 |
| 20260507011400 | 46 | 88 | 2.0 | 4.0 | 0.00 | 0.00 | 0.00 | 88 | 1008.5 |
| 20260507010001 | 46 | 71 | 2.0 | 4.0 | 0.00 | 0.00 | 0.00 | 88 | 1008.5 |
| 20260507005300 | 46 | 80 | 1.0 | 4.0 | 0.00 | 0.00 | 0.00 | 87 | 1008.6 |
| 20260507004600 | 46 | 74 | 1.0 | 4.0 | 0.00 | 0.00 | 0.00 | 87 | 1008.6 |
| 20260507003900 | 46 | 68 | 1.0 | 4.0 | 0.00 | 0.00 | 0.00 | 86 | 1008.5 |
| 20260507003200 | 46 | 69 | 2.0 | 3.0 | 0.00 | 0.00 | 0.00 | 86 | 1008.6 |
| 20260507002500 | 46 | 78 | 0.0 | 5.0 | 0.00 | 0.00 | 0.00 | 86 | 1008.6 |
| 20260507001800 | 47 | 80 | 3.0 | 6.0 | 0.00 | 0.00 | 0.00 | 87 | 1008.7 |
| 20260506235000 | 47 | 111 | 1.0 | 4.0 | 0.00 | 0.00 | 0.00 | 87 | 1008.6 |
| 20260506234300 | 47 | 122 | 2.0 | 4.0 | 0.00 | 0.00 | 0.00 | 87 | 1008.6 |
| 20260506233601 | 47 | 116 | 1.0 | 2.0 | 0.00 | 0.00 | 0.00 | 86 | 1008.6 |
| 20260506232900 | 47 | 90 | 1.0 | 3.0 | 0.00 | 0.00 | 0.00 | 86 | 1008.6 |
| 20260506232200 | 47 | 120 | 0.0 | 4.0 | 0.00 | 0.00 | 0.00 | 86 | 1008.6 |
| 20260506231500 | 47 | 101 | 1.0 | 3.0 | 0.00 | 0.00 | 0.00 | 84 | 1008.5 |
| 20260506230800 | 47 | 91 | 1.0 | 3.0 | 0.00 | 0.00 | 0.00 | 84 | 1008.5 |
| 20260506230100 | 47 | 117 | 0.0 | 2.0 | 0.00 | 0.00 | 0.00 | 83 | 1008.5 |
| 20260506225400 | 48 | 130 | 1.0 | 2.0 | 0.00 | 0.00 | 0.00 | 82 | 1008.6 |
| 20260506224700 | 48 | 132 | 0.0 | 2.0 | 0.00 | 0.00 | 0.00 | 82 | 1008.5 |
| 20260506224000 | 49 | 130 | 0.0 | 2.0 | 0.00 | 0.00 | 0.00 | 81 | 1008.5 |
| 20260506221901 | 49 | 116 | 0.0 | 2.0 | 0.00 | 0.00 | 0.00 | 79 | 1008.6 |
| 20260506221200 | 50 | 61 | 1.0 | 2.0 | 0.00 | 0.00 | 0.00 | 79 | 1008.7 |
| 20260506215801 | 50 | 37 | 0.0 | 2.0 | 0.00 | 0.00 | 0.00 | 78 | 1008.6 |
| 20260506215100 | 50 | 26 | 0.0 | 2.0 | 0.00 | 0.00 | 0.00 | 78 | 1008.7 |
| 20260506214400 | 51 | 80 | 0.0 | 2.0 | 0.00 | 0.00 | 0.00 | 78 | 1008.8 |
| 20260506213700 | 51 | 124 | 0.0 | 2.0 | 0.00 | 0.00 | 0.00 | 77 | 1008.7 |
| 20260506213000 | 51 | 141 | 1.0 | 2.0 | 0.00 | 0.00 | 0.00 | 77 | 1008.6 |
| 20260506212300 | 51 | 134 | 0.0 | 2.0 | 0.00 | 0.00 | 0.00 | 77 | 1008.6 |
| 20260506211600 | 51 | 158 | 0.0 | 2.0 | 0.00 | 0.00 | 0.00 | 76 | 1008.6 |
| 20260506210900 | 51 | 177 | 0.0 | 2.0 | 0.00 | 0.00 | 0.00 | 74 | 1008.6 |
| 20260506210200 | 51 | 175 | 0.0 | 2.0 | 0.00 | 0.00 | 0.00 | 74 | 1008.5 |
| 20260506205500 | 51 | 181 | 0.0 | 2.0 | 0.00 | 0.00 | 0.00 | 73 | 1008.6 |
| 20260506204800 | 51 | 170 | 1.0 | 2.0 | 0.00 | 0.00 | 0.00 | 72 | 1008.6 |
| 20260506204100 | 52 | 136 | 0.0 | 2.0 | 0.00 | 0.00 | 0.00 | 71 | 1008.4 |
| 20260506203400 | 52 | 131 | 0.0 | 1.0 | 0.00 | 0.00 | 0.00 | 70 | 1008.5 |
| 20260506202000 | 53 | 162 | 0.0 | 2.0 | 0.00 | 0.00 | 0.00 | 67 | 1008.3 |
| 20260506201300 | 53 | 146 | 0.0 | 2.0 | 0.00 | 0.00 | 0.00 | 67 | 1008.1 |
| 20260506200601 | 54 | 139 | 0.0 | 2.0 | 0.00 | 0.00 | 0.00 | 66 | 1008.0 |
| 20260506195900 | 54 | 181 | 0.0 | 2.0 | 0.00 | 0.00 | 0.00 | 65 | 1008.1 |
| 20260506194500 | 55 | 0 | 0.0 | 0.0 | 0.00 | 0.00 | 0.00 | 63 | 1007.9 |
| 20260506193100 | 55 | 245 | 0.0 | 2.0 | 0.00 | 0.00 | 0.00 | 62 | 1007.9 |
| 20260506192400 | 56 | 208 | 0.0 | 2.0 | 0.00 | 0.00 | 0.00 | 59 | 1007.8 |
| 20260506191700 | 56 | 234 | 0.0 | 3.0 | 0.00 | 0.00 | 0.00 | 56 | 1007.8 |
| 20260506191000 | 57 | 263 | 1.0 | 4.0 | 0.00 | 0.00 | 0.00 | 55 | 1007.8 |
| 20260506190300 | 58 | 291 | 2.0 | 5.0 | 0.00 | 0.00 | 0.00 | 50 | 1007.7 |
| 20260506185600 | 58 | 300 | 0.0 | 5.0 | 0.00 | 0.00 | 0.00 | 49 | 1007.6 |
| 20260506184900 | 58 | 300 | 2.0 | 5.0 | 0.00 | 0.00 | 0.00 | 48 | 1007.7 |
| 20260506184200 | 57 | 234 | 0.0 | 6.0 | 0.00 | 0.00 | 0.00 | 46 | 1007.7 |
| 20260506182800 | 57 | 237 | 2.0 | 5.0 | 0.00 | 0.00 | 0.00 | 49 | 1007.7 |
| 20260506180659 | 58 | 271 | 1.0 | 4.0 | 0.00 | 0.00 | 0.00 | 46 | 1007.7 |
| 20260506180000 | 58 | 186 | 0.0 | 6.0 | 0.00 | 0.00 | 0.00 | 44 | 1007.6 |
| 20260506175259 | 59 | 185 | 2.0 | 5.0 | 0.00 | 0.00 | 0.00 | 41 | 1007.6 |
| 20260506173859 | 59 | 230 | 2.0 | 7.0 | 0.00 | 0.00 | 0.00 | 41 | 1007.8 |
| 20260506173159 | 59 | 215 | 3.0 | 8.0 | 0.00 | 0.00 | 0.00 | 42 | 1007.8 |
| 20260506172459 | 60 | 208 | 4.0 | 13.0 | 0.00 | 0.00 | 0.00 | 42 | 1007.8 |
| 20260506171759 | 60 | 212 | 4.0 | 13.0 | 0.00 | 0.00 | 0.00 | 41 | 1007.8 |
| 20260506170359 | 62 | 233 | 2.0 | 10.0 | 0.00 | 0.00 | 0.00 | 36 | 1007.8 |
| 20260506165659 | 62 | 266 | 4.0 | 10.0 | 0.00 | 0.00 | 0.00 | 34 | 1007.6 |
| 20260506164959 | 63 | 279 | 5.0 | 10.0 | 0.00 | 0.00 | 0.00 | 34 | 1007.6 |
| 20260506164259 | 63 | 270 | 2.0 | 8.0 | 0.00 | 0.00 | 0.00 | 30 | 1007.5 |
| 20260506163559 | 63 | 241 | 2.0 | 6.0 | 0.00 | 0.00 | 0.00 | 31 | 1007.8 |
| 20260506162859 | 62 | 232 | 2.0 | 6.0 | 0.00 | 0.01 | 0.00 | 31 | 1007.7 |
| 20260506162159 | 62 | 254 | 3.0 | 8.0 | 0.00 | 0.01 | 0.00 | 31 | 1007.6 |
| 20260506161500 | 63 | 254 | 4.0 | 8.0 | 0.00 | 0.01 | 0.00 | 29 | 1007.6 |
| 20260506160759 | 64 | 250 | 4.0 | 8.0 | 0.00 | 0.01 | 0.00 | 26 | 1007.7 |
| 20260506155359 | 65 | 261 | 2.0 | 9.0 | 0.00 | 0.01 | 0.00 | 30 | 1007.7 |
| 20260506154659 | 63 | 259 | 4.0 | 8.0 | 0.00 | 0.01 | 0.00 | 29 | 1007.7 |
| 20260506153959 | 64 | 262 | 4.0 | 8.0 | 0.00 | 0.01 | 0.00 | 27 | 1007.7 |
| 20260506153301 | 64 | 262 | 2.0 | 6.0 | 0.00 | 0.01 | 0.00 | 27 | 1007.8 |
| 20260506152600 | 65 | 288 | 2.0 | 8.0 | 0.00 | 0.01 | 0.00 | 25 | 1007.9 |
| 20260506151859 | 65 | 268 | 5.0 | 8.0 | 0.00 | 0.01 | 0.00 | 24 | 1007.8 |
| 20260506151200 | 64 | 219 | 2.0 | 8.0 | 0.00 | 0.01 | 0.00 | 27 | 1008.0 |
| 20260506150500 | 64 | 222 | 2.0 | 7.0 | 0.00 | 0.01 | 0.00 | 26 | 1008.1 |
| 20260506145759 | 64 | 231 | 2.0 | 7.0 | 0.00 | 0.01 | 0.00 | 26 | 1008.2 |
| 20260506144359 | 65 | 261 | 2.0 | 8.0 | 0.00 | 0.01 | 0.00 | 23 | 1008.2 |
| 20260506143659 | 65 | 250 | 4.0 | 9.0 | 0.00 | 0.01 | 0.00 | 22 | 1008.1 |
| 20260506142959 | 66 | 202 | 2.0 | 8.0 | 0.00 | 0.01 | 0.00 | 22 | 1008.3 |
| 20260506142259 | 67 | 195 | 4.0 | 8.0 | 0.00 | 0.01 | 0.00 | 22 | 1008.4 |
| 20260506140859 | 64 | 336 | 2.0 | 10.0 | 0.00 | 0.01 | 0.00 | 23 | 1008.6 |
| 20260506135500 | 66 | 241 | 4.0 | 10.0 | 0.00 | 0.01 | 0.00 | 22 | 1008.6 |
| 20260506134800 | 66 | 252 | 1.0 | 8.0 | 0.00 | 0.02 | 0.00 | 22 | 1008.6 |
| 20260506134059 | 65 | 253 | 5.0 | 8.0 | 0.00 | 0.04 | 0.00 | 22 | 1008.7 |
| 20260506133400 | 65 | 235 | 2.0 | 8.0 | 0.00 | 0.04 | 0.00 | 28 | 1008.8 |
| 20260506132659 | 65 | 265 | 4.0 | 8.0 | 0.00 | 0.04 | 0.00 | 25 | 1008.8 |
| 20260506131959 | 64 | 305 | 4.0 | 8.0 | 0.00 | 0.04 | 0.00 | 24 | 1008.8 |
| 20260506131300 | 65 | 299 | 4.0 | 8.0 | 0.00 | 0.04 | 0.00 | 25 | 1008.9 |
| 20260506130559 | 64 | 306 | 3.0 | 8.0 | 0.00 | 0.04 | 0.00 | 25 | 1009.0 |
| 20260506125159 | 64 | 219 | 2.0 | 8.0 | 0.00 | 0.04 | 0.00 | 26 | 1009.1 |
| 20260506124459 | 64 | 282 | 3.0 | 7.0 | 0.00 | 0.04 | 0.00 | 30 | 1009.2 |
| 20260506123800 | 63 | 274 | 3.0 | 8.0 | 0.00 | 0.04 | 0.00 | 30 | 1009.3 |
| 20260506123100 | 63 | 288 | 4.0 | 8.0 | 0.00 | 0.04 | 0.00 | 30 | 1009.4 |
| 20260506122359 | 62 | 305 | 2.0 | 9.0 | 0.00 | 0.04 | 0.00 | 31 | 1009.5 |
| 20260506120959 | 63 | 259 | 4.0 | 8.0 | 0.00 | 0.04 | 0.00 | 29 | 1009.7 |
| 20260506120300 | 62 | 254 | 4.0 | 8.0 | 0.00 | 0.04 | 0.00 | 33 | 1009.8 |
| 20260506114859 | 62 | 252 | 3.0 | 8.0 | 0.00 | 0.04 | 0.00 | 34 | 1010.0 |
| 20260506114200 | 62 | 215 | 2.0 | 8.0 | 0.00 | 0.04 | 0.00 | 39 | 1010.1 |
| 20260506113459 | 61 | 289 | 2.0 | 7.0 | 0.00 | 0.04 | 0.00 | 39 | 1010.1 |
| 20260506112100 | 61 | 195 | 2.0 | 5.0 | 0.00 | 0.04 | 0.00 | 42 | 1010.4 |
| 20260506110659 | 61 | 280 | 2.0 | 8.0 | 0.00 | 0.04 | 0.00 | 41 | 1010.4 |
| 20260506105959 | 60 | 131 | 2.0 | 8.0 | 0.00 | 0.04 | 0.00 | 46 | 1010.7 |